Tracking 29493 objects as of 9-Sep-2024
HD Live streaming from Space Station
objects crossing your sky now

FENGYUN 1C DEB

Track FENGYUN 1C DEB now!
10-day predictions


NORAD ID: 33603
Int'l Code: 1999-025DCL
Perigee: 485.5 km
Apogee: 811.3 km
Inclination: 98.8 °
Period: 97.5 minutes
Semi major axis: 7019 km
RCS: 0.0056 m2 (small)
Launch date: May 10, 1999
Source: People's Republic of China (PRC)
Launch site: Taiyaun Space Center, China (TSC)

Note: This is SATELLITE DEBRIS
Your satellite tracking list
Your tracking list is empty




NASA's NSSDC Master Catalog

Two Line Element Set (TLE):
1 33603U 99025DCL 24251.43956115  .00006687  00000-0  62574-3 0  9992
2 33603  98.8103 138.1196 0232045  90.0551 272.7245 14.76221480920444
Source of the keplerian elements: AFSPC